[[{"header":{"parameterUnit":"m.s-1","parameterCategory":1,"la1":30.2991,"la2":30.254,"lo1":-89.0895,"lo2":-89.0444,"dy":0.0017,"dx":0.0017,"nx":28,"ny":28,"refTime":"2024-04-02T03:00:00:Z","depth":0,"parameterNumber":2,"parameterNumberName":"U-component_of_WINDS"},"data":[0,0,0,0,0,0,0,0,0,0,0,0,0,0,0,0,0,0,0,0,0,0,0,0,0,0,0,0,0,0,0,0,0,0,0,0,0,0,0,0,0,0,0,0,0,0,0,0,0,0,0,0,0,0,0,0,0,0,6.7027,6.7028,0,6.7124,6.7125,6.7126,6.7107,6.7105,6.7103,6.7102,6.72,6.7204,6.7208,0,0,0,0,0,0,0,0,0,0,0,0,0,6.6825,6.6829,6.7027,6.7028,6.7029,6.7124,6.7125,6.7126,6.7107,6.7105,6.7103,6.7101,6.7199,6.7204,6.7209,0,0,0,0,0,0,0,0,0,0,0,0,0,6.6917,6.6831,6.7027,6.7031,6.7032,6.7123,6.7125,6.7127,6.7108,6.7105,6.7102,6.71,6.7197,6.7203,6.7209,6.7302,0,0,6.7229,6.7232,0,0,0,0,0,0,0,0,6.6912,6.6924,6.7029,6.7031,6.7033,6.7101,6.709,6.7185,6.7108,6.7079,6.7102,6.7098,6.7169,6.7177,6.7201,6.7306,6.7311,6.723,6.7233,6.7236,6.7238,0,0,0,0,0,0,0,6.6905,6.692,6.7065,6.7031,6.7033,6.7028,6.7038,6.7108,6.7138,6.7081,6.708,6.7092,6.7169,6.7195,6.7204,6.7312,6.7229,6.7235,6.7239,6.7241,6.7501,6.7504,0,0,0,0,0,0,6.6897,6.6915,6.7062,6.7068,6.6964,6.7034,6.7045,6.7081,6.7137,6.7143,6.7094,6.7091,6.7186,6.7196,6.7207,6.7321,6.7236,6.7242,6.7246,6.7498,6.7501,6.7505,0,0,0,0,0,0,6.6893,6.6911,6.7058,6.6991,6.701,6.7041,6.7081,6.7085,6.7111,6.7147,6.7152,6.7115,6.7184,6.7198,6.7279,6.7324,6.7245,6.7251,6.7494,6.7499,6.7503,6.7547,0,0,0,0,0,0,6.6887,6.6909,6.6944,6.6992,6.7013,6.7128,6.7084,6.7089,6.7122,6.7118,6.7168,6.7173,6.7183,6.727,6.7285,6.7331,6.7256,6.749,6.7496,6.7502,6.7542,6.7553,6.7562,0,0,0,0,0,6.688,6.6952,6.6946,6.6964,6.7058,6.7131,6.7143,6.7153,6.7125,6.7161,6.7185,6.7172,6.7316,6.7278,6.7296,6.7344,6.7487,6.7494,6.7501,6.7537,6.7551,6.7562,0,0,0,0,0,0,6.6907,6.6958,6.6952,6.7042,6.7082,6.7128,6.7173,6.7166,6.7215,6.721,6.722,6.7232,6.7315,6.7337,6.7294,6.7438,6.7398,6.7409,6.742,6.7432,6.7442,6.7435,6.7261,0,0,0,0,0,6.6924,6.6979,6.7021,6.7096,6.7116,6.7141,6.7174,6.7178,6.722,6.7237,6.7267,6.7308,6.7363,6.7399,6.7451,6.7545,6.7557,6.7587,6.7597,6.7606,6.7615,6.7668,6.7683,6.7527,6.7527,6.7527,0,0,6.6958,6.6993,6.7027,6.7102,6.7134,6.7192,6.7156,6.7217,6.7261,6.7247,6.7325,6.7349,6.7396,6.7485,6.7525,6.7506,6.766,6.7614,6.762,6.7625,6.7677,6.7691,6.7704,6.7532,6.7531,6.753,0,0,6.7051,6.7082,6.7149,6.7182,6.7232,6.7248,6.7265,6.7312,6.7327,6.7407,6.7398,6.745,6.7544,6.7578,6.7608,6.7717,6.7707,6.7734,6.7786,6.7838,6.7851,6.7861,6.7901,6.7916,6.7743,6.7743,6.7743,0,6.7087,6.7173,6.7184,6.7248,6.7281,6.7273,6.7341,6.7373,6.7437,6.7461,6.7439,6.7559,6.759,6.7687,6.7714,6.7738,6.7758,6.7728,6.7848,6.7859,6.7869,6.7908,6.7923,6.7746,6.7746,6.7745,6.7745,0,6.7216,6.7277,6.7325,6.7388,6.7427,6.7493,6.7514,6.7553,6.7555,6.7574,6.7657,6.7694,6.7755,6.7778,6.778,6.7877,6.7864,6.7845,6.7806,6.7887,6.7923,6.7938,6.775,6.7749,6.7748,6.7748,0,0,6.7326,6.7397,6.7414,6.7444,6.75,6.7546,6.7613,6.7673,6.7707,6.7752,6.7808,6.789,6.7873,6.7907,6.7913,6.7959,6.8045,6.7935,6.7936,6.7955,6.8156,6.817,6.8187,6.8039,6.8042,6.8044,6.8152,0,6.7424,6.7541,6.7554,6.7659,6.7715,6.771,6.7768,6.7808,6.7829,6.788,6.7902,6.7961,6.7934,6.7955,6.8,6.8025,6.8086,6.8017,6.8092,6.8095,6.8081,6.8206,6.822,6.832,6.8167,6.8169,6.8171,0,6.7554,6.7604,6.7715,6.7765,6.7789,6.7841,6.7899,6.7948,6.7995,6.8006,6.8046,6.8047,6.8116,6.8075,6.8171,6.8124,6.8156,6.8174,6.8178,6.8185,6.8138,6.8217,6.8352,6.8368,6.8193,6.8191,6.8189,0,6.7625,6.772,6.7799,6.7825,6.7884,6.7921,6.7948,6.7992,6.8029,6.8079,6.8103,6.8161,6.8193,6.8238,6.8255,6.8223,6.8351,6.8311,6.8364,6.8364,6.8391,6.8389,6.8533,6.8411,6.841,6.841,6.841,0,6.7733,6.7801,6.7832,6.7881,6.7958,6.7972,6.8048,6.8073,6.8113,6.8167,6.8165,6.8216,6.8235,6.829,6.8303,6.8382,6.8396,6.8408,6.8411,6.8409,6.8407,6.8429,6.8423,6.8414,6.8413,6.8412,6.8412,0,6.7825,6.7848,6.7934,6.7985,6.7999,6.8054,6.8097,6.8144,6.8165,6.8234,6.8251,6.8283,6.8347,6.8369,6.8446,6.8455,6.8547,6.8544,6.8532,6.8532,6.8585,6.858,6.8749,6.8772,6.8634,6.8635,6.8636,0,6.7892,6.7945,6.8002,6.8038,6.8067,6.8125,6.8163,6.818,6.8219,6.8278,6.8319,6.8383,6.8435,6.8538,6.8568,6.8628,6.8626,6.8682,6.8635,6.8632,6.8628,6.8625,6.8631,6.869,6.8692,6.8693,6.8694,0,6.8011,6.802,6.8075,6.8135,6.818,6.8227,6.8273,6.8303,6.8327,6.8372,6.8438,6.8479,6.8559,6.8622,6.8684,6.8712,6.8708,6.8708,6.8724,6.8722,6.8713,6.872,6.8556,6.8704,6.8703,6.8702,6.8702,6.8701,6.8093,6.814,6.8188,6.825,6.8287,6.833,6.8378,6.8406,6.8461,6.8528,6.8535,6.8606,6.8654,6.8736,6.8768,6.8824,6.8809,6.8831,6.8837,6.8842,6.8847,6.8704,6.8835,6.8835,6.8835,6.8835,6.8834,0,6.8212,6.8243,6.83,6.8365,6.8414,6.8406,6.8458,6.8499,6.8562,6.8607,6.8659,6.8736,6.8798,6.8835,6.8898,6.8936,6.8936,6.8952,6.895,6.8957,6.8856,6.8837,6.8952,6.8952,6.8952,6.8952,6.8952,6.8952,6.828,6.836,6.8376,6.8475,6.8505,6.8576,6.8606,6.8647,6.8683,6.8769,6.8822,6.8845,6.8888,6.8954,6.9012,6.9021,6.9044,6.9062,6.907,6.8976,6.8963,6.8952,6.8934,6.9067,6.9067,6.9166,6.9167,6.9168]},{"header":{"parameterUnit":"m.s-1","parameterCategory":1,"la1":30.2991,"la2":30.254,"lo1":-89.0895,"lo2":-89.0444,"dy":0.0017,"dx":0.0017,"nx":28,"ny":28,"refTime":"2024-04-02T03:00:00:Z","depth":0,"parameterNumber":3,"parameterNumberName":"V-component_of_WINDS"},"data":[0,0,0,0,0,0,0,0,0,0,0,0,0,0,0,0,0,0,0,0,0,0,0,0,0,0,0,0,0,0,0,0,0,0,0,0,0,0,0,0,0,0,0,0,0,0,0,0,0,0,0,0,0,0,0,0,0,0,-3.5017,-3.5017,0,-3.502,-3.502,-3.502,-3.5024,-3.5024,-3.5024,-3.5024,-3.5023,-3.5023,-3.5023,0,0,0,0,0,0,0,0,0,0,0,0,0,-3.5013,-3.5013,-3.5017,-3.5017,-3.5017,-3.502,-3.502,-3.502,-3.5024,-3.5024,-3.5024,-3.5024,-3.5023,-3.5023,-3.5023,0,0,0,0,0,0,0,0,0,0,0,0,0,-3.5015,-3.5013,-3.5017,-3.502,-3.502,-3.502,-3.502,-3.502,-3.5024,-3.5024,-3.5024,-3.5024,-3.5023,-3.5023,-3.5023,-3.5021,0,0,-3.5023,-3.5023,0,0,0,0,0,0,0,0,-3.5015,-3.5015,-3.5019,-3.5019,-3.502,-3.5022,-3.5019,-3.502,-3.5024,-3.5022,-3.5024,-3.5024,-3.5023,-3.5023,-3.5023,-3.5021,-3.5021,-3.5023,-3.5023,-3.5023,-3.5023,0,0,0,0,0,0,0,-3.5015,-3.5015,-3.5018,-3.5019,-3.502,-3.502,-3.502,-3.5019,-3.5022,-3.5022,-3.5023,-3.5023,-3.5023,-3.5023,-3.5023,-3.5021,-3.5023,-3.5023,-3.5023,-3.5023,-3.5017,-3.5017,0,0,0,0,0,0,-3.5015,-3.5015,-3.5018,-3.5018,-3.5018,-3.502,-3.502,-3.5021,-3.5022,-3.5022,-3.5023,-3.5023,-3.5023,-3.5023,-3.5023,-3.502,-3.5023,-3.5023,-3.5023,-3.5017,-3.5017,-3.5017,0,0,0,0,0,0,-3.5015,-3.5015,-3.5018,-3.5017,-3.5017,-3.502,-3.5021,-3.5021,-3.5021,-3.5022,-3.5022,-3.5023,-3.5023,-3.5023,-3.5022,-3.502,-3.5023,-3.5023,-3.5018,-3.5017,-3.5017,-3.5015,0,0,0,0,0,0,-3.5015,-3.5015,-3.5014,-3.5017,-3.5017,-3.5017,-3.502,-3.5021,-3.5021,-3.5022,-3.5022,-3.5022,-3.5023,-3.5022,-3.5021,-3.502,-3.5022,-3.5018,-3.5017,-3.5017,-3.5015,-3.5015,-3.5014,0,0,0,0,0,-3.5015,-3.5013,-3.5014,-3.5015,-3.5017,-3.5017,-3.5018,-3.502,-3.5021,-3.502,-3.5021,-3.5022,-3.5021,-3.5022,-3.5021,-3.502,-3.5018,-3.5018,-3.5017,-3.5015,-3.5015,-3.5014,0,0,0,0,0,0,-3.5008,-3.5013,-3.5015,-3.5014,-3.5016,-3.5018,-3.5017,-3.5019,-3.5019,-3.5019,-3.5021,-3.5021,-3.502,-3.502,-3.5021,-3.5018,-3.5019,-3.5019,-3.5018,-3.5017,-3.5017,-3.5017,-3.5022,0,0,0,0,0,-3.5007,-3.5008,-3.5012,-3.501,-3.5011,-3.5014,-3.5014,-3.5016,-3.5017,-3.5017,-3.5018,-3.5019,-3.5018,-3.5018,-3.5018,-3.5015,-3.5016,-3.5014,-3.5014,-3.5014,-3.5013,-3.5013,-3.5012,-3.5017,-3.5017,-3.5017,0,0,-3.5004,-3.5007,-3.5007,-3.5009,-3.5011,-3.5011,-3.5014,-3.5014,-3.5015,-3.5017,-3.5016,-3.5017,-3.5018,-3.5016,-3.5015,-3.5016,-3.5012,-3.5014,-3.5013,-3.5013,-3.5013,-3.5012,-3.5012,-3.5017,-3.5017,-3.5017,0,0,-3.4998,-3.5001,-3.5,-3.5002,-3.5005,-3.5007,-3.5007,-3.501,-3.5011,-3.5011,-3.5013,-3.5013,-3.5012,-3.5013,-3.5013,-3.501,-3.5011,-3.501,-3.5008,-3.5007,-3.5007,-3.5007,-3.5006,-3.5005,-3.501,-3.5009,-3.5009,0,-3.4994,-3.4995,-3.4999,-3.5,-3.5001,-3.5005,-3.5005,-3.5006,-3.5008,-3.5009,-3.501,-3.501,-3.5011,-3.501,-3.5009,-3.5009,-3.5009,-3.5009,-3.5007,-3.5006,-3.5006,-3.5005,-3.5005,-3.5009,-3.5009,-3.5009,-3.5009,0,-3.499,-3.4991,-3.499,-3.4994,-3.4995,-3.4995,-3.4999,-3.4999,-3.5002,-3.5004,-3.5003,-3.5005,-3.5005,-3.5005,-3.5006,-3.5005,-3.5005,-3.5007,-3.5008,-3.5006,-3.5005,-3.5005,-3.5009,-3.5009,-3.5009,-3.5009,0,0,-3.4978,-3.4986,-3.4986,-3.4988,-3.4992,-3.4993,-3.4993,-3.4995,-3.4996,-3.4998,-3.4998,-3.4998,-3.5,-3.5,-3.5002,-3.5002,-3.5,-3.5003,-3.5003,-3.5002,-3.4998,-3.4997,-3.4997,-3.5001,-3.5001,-3.5001,-3.4998,0,-3.4974,-3.4976,-3.498,-3.498,-3.4982,-3.4987,-3.4987,-3.499,-3.4992,-3.4993,-3.4995,-3.4996,-3.4998,-3.4998,-3.4998,-3.5,-3.4999,-3.5,-3.5001,-3.5001,-3.5,-3.4996,-3.4995,-3.4992,-3.4998,-3.4998,-3.4998,0,-3.4968,-3.4971,-3.4972,-3.4977,-3.4978,-3.4978,-3.4981,-3.4982,-3.4986,-3.4987,-3.4989,-3.4991,-3.4992,-3.4994,-3.4995,-3.4996,-3.4996,-3.4997,-3.4997,-3.4997,-3.4999,-3.4995,-3.4991,-3.4991,-3.4998,-3.4998,-3.4998,0,-3.4959,-3.4964,-3.4965,-3.4967,-3.4974,-3.4974,-3.4976,-3.498,-3.4981,-3.4984,-3.4985,-3.4986,-3.4987,-3.4989,-3.4992,-3.4993,-3.4992,-3.4994,-3.4993,-3.4993,-3.4992,-3.4992,-3.4987,-3.4993,-3.4993,-3.4993,-3.4993,0,-3.4953,-3.4953,-3.4962,-3.4963,-3.4963,-3.4969,-3.4969,-3.4972,-3.4976,-3.4977,-3.4981,-3.4982,-3.4986,-3.4987,-3.499,-3.499,-3.499,-3.4991,-3.4992,-3.4991,-3.4991,-3.499,-3.4991,-3.4993,-3.4993,-3.4993,-3.4993,0,-3.4943,-3.4949,-3.4951,-3.4958,-3.496,-3.496,-3.4966,-3.4967,-3.497,-3.4972,-3.4972,-3.4977,-3.4979,-3.4983,-3.4985,-3.4987,-3.4987,-3.4988,-3.4986,-3.4986,-3.4985,-3.4985,-3.498,-3.498,-3.4986,-3.4986,-3.4985,0,-3.4939,-3.4939,-3.4947,-3.4949,-3.4952,-3.4954,-3.4957,-3.4962,-3.4964,-3.4969,-3.4969,-3.4972,-3.4974,-3.4977,-3.498,-3.4982,-3.4983,-3.4982,-3.4984,-3.4983,-3.4983,-3.4983,-3.4983,-3.4981,-3.4981,-3.4981,-3.4981,0,-3.493,-3.4933,-3.4936,-3.4941,-3.4944,-3.4948,-3.4952,-3.4953,-3.4959,-3.4961,-3.4964,-3.4966,-3.497,-3.4972,-3.4975,-3.4977,-3.498,-3.498,-3.498,-3.4979,-3.4978,-3.4978,-3.4984,-3.498,-3.498,-3.498,-3.498,-3.498,-3.4922,-3.4923,-3.493,-3.4933,-3.4938,-3.4942,-3.4943,-3.4948,-3.4951,-3.4955,-3.4958,-3.4961,-3.4965,-3.497,-3.4972,-3.4974,-3.4975,-3.4975,-3.4975,-3.4974,-3.4974,-3.4978,-3.4974,-3.4974,-3.4975,-3.4975,-3.4975,0,-3.4913,-3.4918,-3.4922,-3.4928,-3.4931,-3.4936,-3.4941,-3.4943,-3.4946,-3.495,-3.4953,-3.4957,-3.496,-3.4964,-3.4967,-3.4968,-3.497,-3.4969,-3.4968,-3.4969,-3.4973,-3.4973,-3.4968,-3.4968,-3.4968,-3.4968,-3.4968,-3.4968,-3.4909,-3.4912,-3.4916,-3.4921,-3.4926,-3.4929,-3.4932,-3.4936,-3.494,-3.4944,-3.4947,-3.4951,-3.4955,-3.4959,-3.4962,-3.4964,-3.4964,-3.4963,-3.4965,-3.4968,-3.4968,-3.4969,-3.4969,-3.4963,-3.4963,-3.4961,-3.4961,-3.4961]}]]